User: anonymous   Login
Location: Unspecified
(0.0000°N, 0.0000°E)
Time: 00:06:42
(UTC+00:00)
Language:

TIGRISAT - Orbit

View from above orbital plane
View from above orbital plane
View from above satellite
View from above satellite

Ground track
Ground track

The orbit data is extracted from the following two-line orbital elements,

1 40043U 14033AK  23344.39828572  .00001952  00000-0  27364-3 0  9994
2 40043  97.6738 150.7743 0056261 200.0564 159.8436 14.77513458509428
Epoch (UTC): 10 December 2023 09:33:31
Eccentricity: 0.0056261
inclination: 97.6738°
perigee height: 598 km
apogee height: 676 km
right ascension of ascending node: 150.7743°
argument of perigee: 200.0564°
revolutions per day: 14.77513458
mean anomaly at epoch: 159.8436°
orbit number at epoch: 50942

The dashed part of the orbit path shows where the satellite is in the earth's shadow,  

DLR